Regional Weather Roundup
Issued by NWS

Home | Current Version | Previous Version | Text Only | Print | Product List | Glossary On
Versions: 1 2 3 4 5 6 7 8 9 10 11 12 13 14 15 16 17 18 19 20 21 22 23 24 25 26 27 28
000
ASUS45 KPSR 271710
RWRAZ

ARIZONA HOURLY REGIONAL WEATHER ROUNDUP
NATIONAL WEATHER SERVICE PHOENIX AZ
1000 AM MST MON FEB 27 2017

NOTE: FAIR INDICATES FEW OR NO CLOUDS BELOW 12,000 FEET WITH NO
SIGNIFICANT WEATHER AND/OR OBSTRUCTIONS TO VISIBILITY.

AZZ001>003-036-271800-
NORTHWEST ARIZONA

CITY           SKY/WX    TMP DP  RH WIND       PRES   REMARKS
BULLHEAD CITY  CLOUDY    54  37  54 S7        29.89S
KINGMAN        CLOUDY    49  14  24 S18G28    29.88R
$$

AZZ004>008-015-016-018-271800-
NORTH CENTRAL ARIZONA

CITY           SKY/WX    TMP DP  RH WIND       PRES   REMARKS
GRAND CANYON   CLOUDY    34  27  75 S22G37    29.89R WCI  22
WILLIAMS       CLOUDY    32  27  80 S17       29.91S WCI  21
PRESCOTT       CLOUDY    41  33  73 SE13G18   29.94S
FLAGSTAFF      LGT SNOW  30  28  92 SW22G30   29.92S FOG     WCI  17
PAGE           MOSUNNY   49  15  25 SW15G24   29.78R
$$

AZZ009>014-017-271800-
NORTHEAST ARIZONA

CITY           SKY/WX    TMP DP  RH WIND       PRES   REMARKS
WINSLOW        CLOUDY    48  26  42 S9        29.93R
WINDOW ROCK    CLOUDY    38  24  57 SW18G29   29.92R WCI  28
SHOW LOW       PTSUNNY   37  23  56 S22G39    29.98R WCI  27
$$

AZZ023-271800-
GREATER PHOENIX AREA

CITY           SKY/WX    TMP DP  RH WIND       PRES   REMARKS
PHOENIX        CLOUDY    55  38  52 SE8       29.97S
BUCKEYE        CLOUDY    55  39  54 E12       29.97S
GLENDALE       PTSUNNY   55  39  54 CALM      29.99R
LUKE AFB       CLOUDY    53  39  58 N3        29.97S
DEER VALLEY    CLOUDY    54  38  54 SE9       29.97R
SCOTTSDALE     CLOUDY    57  37  47 SE9       30.00R
MESA-FALCON    MOSUNNY  N/A N/A N/A SE12G17   29.97R
MESA-GATEWAY   MOSUNNY   57  39  51 SE10      30.00S
CHANDLER       PTSUNNY   59  39  47 SE3       29.99S
$$

AZZ027-028-271800-
SOUTHWEST MARICOPA COUNTY AND PINAL COUNTY

CITY           SKY/WX    TMP DP  RH WIND       PRES   REMARKS
CASA GRANDE    NOT AVBL
GILA BEND      PTSUNNY   61  34  36 SE10      29.93S
$$

AZZ503-504-507>509-271800-
SOUTHEAST ARIZONA

CITY           SKY/WX    TMP DP  RH WIND       PRES   REMARKS
TUCSON         MOSUNNY   58  34  40 SE8       30.05S
DAVIS-MONTHAN  PTSUNNY   58  34  39 VRB5      30.04S
RYAN FIELD       N/A     61  36  39 E9        30.04R
SIERRA VISTA   PTSUNNY   53  24  32 VRB5      30.08R
DOUGLAS        PTSUNNY   55  30  38 MISG      30.08S
SAFFORD        SUNNY     54  30  40 CALM      30.04R
$$

AZZ020-021-025-026-031-271800-
SOUTHWEST ARIZONA

CITY           SKY/WX    TMP DP  RH WIND       PRES   REMARKS
YUMA           CLOUDY    61  54  77 SE21      29.91S
$$

CAZ031-033-041-043-047-048-061-271800-
SOUTHERN CALIFORNIA

CITY           SKY/WX    TMP DP  RH WIND       PRES   REMARKS
DOWNTOWN L.A.  CLOUDY    55  43  63 VRB6      29.90R
L.A. AIRPORT   CLOUDY    54  44  69 NE5       29.91R
SAN DIEGO      LGT RAIN  58  56  93 S15G28    29.94R FOG
BURBANK        CLOUDY    51  38  60 CALM      29.89R
ONTARIO        CLOUDY    50  43  77 CALM      29.90R
RIVERSIDE      CLOUDY    50  46  86 CALM      29.91R
PALM SPRINGS   CLOUDY    53  47  79 NW3       29.92S
EL CENTRO NAS  LGT RAIN  57  43  59 CALM      29.92R
IMPERIAL       CLOUDY    58  45  62 VRB3      29.89R
BLYTHE         CLOUDY    56  46  69 N5        29.92R
NEEDLES        CLOUDY    58  38  47 S14       29.90R
$$

NVZ020-UTZ003-271800-
SOUTHERN NEVADA-UTAH

CITY           SKY/WX    TMP DP  RH WIND       PRES   REMARKS
LAS VEGAS      CLOUDY    52  27  38 S14G20    29.77R
SALT LAKE CITY LGT SNOW  30  30 100 S7        29.68R VSB 1   WCI  23
$$

NMZ009-TXZ055-271800-
NEW MEXICO-WEST TEXAS

CITY           SKY/WX    TMP DP  RH WIND       PRES   REMARKS
ALBUQUERQUE    CLOUDY    44  24  45 S13       29.97S
EL PASO        MOSUNNY   59  21  23 SW10      30.03R
$$


........................KEY........................
SKY/WX - SKY CONDITION/WEATHER
TMP    - TEMPERATURE IN FAHRENHEIT
DP     - DEW POINT IN FAHRENHEIT
RH     - RELATIVE HUMIDITY IN PERCENT
WIND   - DIRECTION AND SPEED IN MILES PER HOUR (MPH)
VRB    - VARIABLE WIND DIRECTION
PRES   - MEAN SEA LEVEL PRESSURE IN INCHES OF MERCURY
         F - FALLING PRESSURE   R - RISING PRESSURE
         S - STEADY PRESSURE
VSB    - VISIBILITY IN MILES
HX     - HEAT INDEX IN FAHRENHEIT
WCI    - WIND CHILL INDEX IN FAHRENHEIT
TC     - TEMPERATURE IN CELSIUS WHICH IS ALSO KNOWN AS
         TEMPERATURE IN CENTIGRADE
AFB    - AIR FORCE BASE
         LUKE AFB IS LUKE AIR FORCE BASE
         DAVIS-MONTHAN IS DAVIS-MONTHAN AIR FORCE BASE
NAS    - NAVAL AIR STATION
         EL CENTRO NAS IS EL CENTRO NAVAL AIR STATION
N/A    - NOT AVAILABLE





USA.gov is the U.S. government's official web portal to all federal, state and local government web resources and services.